Elwood, KS

5:42 AM CST on December 07, 2016 (GMT -0600)
Rosecrans Memorial

Weather History for KSTJ - October, 2011

Change the Weather History Date:

Monday, October 10, 2011

  Actual Average Record
Temperature  
Mean Temperature 62 °F 57 °F  
Max Temperature 73 °F 70 °F 97 °F (1963)
Min Temperature 50 °F 45 °F 23 °F (2012)
Degree Days  
Heating Degree Days 3 9  
Month to date heating degree days 25 77  
Since 1 July heating degree days 78 157  
Cooling Degree Days 0 1  
Month to date cooling degree days 31 15  
Year to date cooling degree days 490 1214  
Growing Degree Days 12 (Base 50)    
Moisture  
Dew Point 56 °F    
Average Humidity 79    
Maximum Humidity 100    
Minimum Humidity 57    
Precipitation  
Precipitation 0.05 in 0.10 in 1.90 in (1973)
Month to date precipitation 0.05 0.91  
Year to date precipitation 13.88 30.63  
Sea Level Pressure  
Sea Level Pressure 30.02 in    
Wind  
Wind Speed 3 mph (South)    
Max Wind Speed 12 mph    
Max Gust Speed 15 mph    
Visibility 9 miles    
Events Rain    
T = Trace of Precipitation, MM = Missing Value Source: NWS Daily Summary

Daily Weather History Graph

Daily Weather History Graph

Search for Another Location

Airport or City:

Trip Planner

Search our weather history database for the weather conditions in past years. The results will help you decide how hot, cold, wet, or windy it might be!

Date:

Astronomy

Oct. 10, 2011 Rise Set
Actual Time 7:24 AM CDT 6:48 PM CDT
Civil Twilight 6:57 AM CDT 7:15 PM CDT
Nautical Twilight 6:26 AM CDT 7:46 PM CDT
Astronomical Twilight 5:54 AM CDT 8:17 PM CDT
Moon 5:52 PM CDT (10/10) 6:06 AM CDT (10/10)
Length of Visible Light 12h 17m
Length of Day
11h 23m
Waxing Gibbous, 98% of the Moon is Illuminated
Oct 10
Waxing Gibbous
Oct 11
Full
Oct 19
Last Quarter
Oct 26
New
Nov 2
First Quarter

Hourly Weather History & Observations

Time (CDT) Temp. Dew Point Humidity Pressure Visibility Wind Dir Wind Speed Gust Speed Precip Events Conditions
12:53 AM 64.9 °F 53.1 °F 65% 30.06 in 10.0 mi WSW 4.6 mph - N/A   Mostly Cloudy
1:53 AM 66.0 °F 52.0 °F 60% 30.05 in 10.0 mi South 5.8 mph - N/A   Partly Cloudy
2:53 AM 63.0 °F 54.0 °F 72% 30.04 in 10.0 mi Calm Calm - N/A   Mostly Cloudy
3:53 AM 60.1 °F 54.0 °F 80% 30.04 in 10.0 mi Calm Calm - N/A   Mostly Cloudy
4:53 AM 60.8 °F 53.6 °F 77% 30.05 in 10.0 mi Calm Calm - N/A   Partly Cloudy
5:53 AM 60.1 °F 54.0 °F 80% 30.04 in 10.0 mi Calm Calm - N/A   Mostly Cloudy
6:53 AM 61.0 °F 55.9 °F 83% 30.04 in 10.0 mi Calm Calm - N/A   Mostly Cloudy
7:53 AM 60.8 °F 57.2 °F 88% 30.04 in 10.0 mi Calm Calm - N/A   Overcast
8:53 AM 61.0 °F 59.0 °F 93% 30.06 in 3.0 mi WSW 4.6 mph - 0.03 in Rain Rain
9:53 AM 61.0 °F 59.0 °F 93% 30.06 in 10.0 mi Calm Calm - 0.02 in   Overcast
10:53 AM 64.9 °F 59.0 °F 81% 30.06 in 10.0 mi Variable 3.5 mph - N/A   Overcast
11:10 AM 64.4 °F 57.2 °F 77% 30.07 in 10.0 mi Calm Calm - N/A   Overcast
11:30 AM 64.4 °F 59.0 °F 83% 30.06 in 10.0 mi Calm Calm - N/A   Overcast
11:53 AM 66.9 °F 57.0 °F 70% 30.05 in 10.0 mi Calm Calm - N/A   Overcast
12:46 PM 68.0 °F 57.2 °F 68% 30.05 in 10.0 mi SE 4.6 mph - N/A   Overcast
12:53 PM 68.0 °F 57.2 °F 68% 30.05 in 10.0 mi Variable 4.6 mph - N/A   Overcast
1:45 PM 69.8 °F 57.2 °F 64% 30.03 in 10.0 mi SSW 5.8 mph - N/A   Overcast
1:53 PM 70.0 °F 57.0 °F 63% 30.01 in 10.0 mi SW 5.8 mph - N/A   Overcast
2:53 PM 71.6 °F 57.2 °F 60% 30.00 in 10.0 mi Calm Calm - N/A   Mostly Cloudy
3:53 PM 72.0 °F 55.9 °F 57% 29.98 in 10.0 mi South 3.5 mph - N/A   Overcast
4:53 PM 71.1 °F 57.0 °F 61% 29.97 in 10.0 mi South 6.9 mph - N/A   Overcast
5:53 PM 70.0 °F 57.9 °F 65% 29.96 in 10.0 mi SSE 10.4 mph - N/A   Mostly Cloudy
6:53 PM 66.2 °F 59.0 °F 78% 29.97 in 10.0 mi SSE 6.9 mph - N/A   Clear
7:53 PM 63.0 °F 57.9 °F 84% 29.97 in 10.0 mi SSE 4.6 mph - N/A   Clear
8:53 PM 61.0 °F 57.9 °F 90% 29.98 in 10.0 mi South 3.5 mph - N/A   Clear
9:53 PM 60.1 °F 57.9 °F 93% 29.98 in 10.0 mi SSE 4.6 mph - N/A   Clear
10:53 PM 57.9 °F 57.0 °F 97% 29.98 in 6.0 mi SE 4.6 mph - N/A   Clear
11:51 PM 51.8 °F 51.8 °F 100% 29.98 in 1.5 mi Calm Calm - N/A   Clear
11:53 PM 52.0 °F 52.0 °F 100% 29.98 in 0.8 mi Calm Calm - N/A   Clear